Skip Page Navigation
NASA JPL Caltech
NASA Logo - Jet Propulsion Laboratory + View the NASA Portal
+ Near-Earth Object (NEO) Program
Search JPL
JPL Home Earth Solar System Stars & Galaxies Technology
JPL Solar System Dynamics
BODIES ORBITS EPHEMERIDES TOOLS PHYSICAL DATA DISCOVERY FAQ SITE MAP
JPL Small-Body Database Browser
Search: [ help ]  
131323 (2001 GE11)
Classification: Main-belt Asteroid          SPK-ID: 2131323
Ephemeris | Orbit Diagram | Orbital Elements | Physical Parameters | Discovery Circumstances | Close-Approach Data ]

[ show orbit diagram ]
Orbital Elements at Epoch 2457400.5 (2016-Jan-13.0) TDB
Reference: JPL 11 (heliocentric ecliptic J2000)
 Element Value Uncertainty (1-sigma)   Units 
e .2072717567893858 6.7052e-08  
a 2.871845120180291 3.0466e-08 au
q 2.276592736893498 2.0295e-07 au
i 8.567944786219343 7.0559e-06 deg
node 189.5575198143103 4.5588e-05 deg
peri 59.30602039824225 4.9448e-05 deg
M 353.8682609703544 2.1896e-05 deg
tp 2457430.777576536837
(2016-Feb-12.27757654)
0.00010843 JED
period 1777.624178159326
4.87
2.8287e-05
7.745e-08
d
yr
n .2025174974683168 3.2226e-09 deg/d
Q 3.467097503467085 3.6781e-08 au
  Orbit Determination Parameters
   # obs. used (total)      329  
   data-arc span      5091 days (13.94 yr)  
   first obs. used      2001-04-15  
   last obs. used      2015-03-24  
   planetary ephem.      DE431  
   SB-pert. ephem.      SB431-BIG16  
   condition code      0  
   fit RMS      .58218  
   data source      ORB  
   producer      Otto Matic  
   solution date      2015-Jun-04 20:48:22  

Additional Information
 Earth MOID = 1.2767 au 
 Jupiter MOID = 1.61002 au 
 T_jup = 3.249 
[ show covariance matrix ]

Ephemeris | Orbit Diagram | Orbital Elements | Physical Parameters | Discovery Circumstances | Close-Approach Data ]

Physical Parameter Table
Parameter Symbol Value Units Sigma Reference Notes
absolute magnitude H 15.3 mag n/a MPO320457  

131323 (2001 GE11)          Discovered 2001-Apr-15 by NEAT at Haleakala
Reference: 20060711/Numbers.arcLast Updated: 2006-07-17

[ show close-approach data ]
Alternate Designations
 2001 GE11 = 2002 RJ90 
Ephemeris | Orbit Diagram | Orbital Elements | Physical Parameters | Discovery Circumstances | Close-Approach Data ]
ABOUT SSD CREDITS/AWARDS PRIVACY/COPYRIGHT GLOSSARY LINKS
FirstGov 2016-Feb-13 06:52 UT
(server date/time)  
NASA Home Page
Site Manager:   Ryan S. Park
Webmaster  Alan B. Chamberlin